Location: *
(50.2903°S, 172.5375°W)
Time: 07:14:05
(UTC+00:00)

Envisat - Visible Passes

Search period start: 04 March 2021 00:00
Search period end: 14 March 2021 00:00
Orbit: 764 x 766 km, 98.1° (Epoch: 03 March)

Date Brightness Start Highest point End Pass type
(mag) Time Alt. Az. Time Alt. Az. Time Alt. Az.
04 Mar 5.9 06:51:39 10° S 06:55:31 22° WSW 06:59:21 10° WNW visible
04 Mar 5.4 14:53:19 10° ENE 14:57:26 25° ESE 15:01:35 10° S visible
04 Mar 3.1 16:31:03 10° N 16:36:07 59° W 16:41:14 10° SSW visible
05 Mar 6.1 14:18:30 10° E 14:21:06 14° SE 14:23:44 10° SSE visible
05 Mar 3.4 15:54:09 10° NNE 15:59:16 72° ESE 16:04:26 10° S visible
06 Mar 6.2 07:17:49 10° SSW 07:20:33 15° SW 07:23:17 10° W visible
06 Mar 4.6 15:17:54 10° NE 15:22:36 38° ESE 15:27:21 10° S visible
07 Mar 5.6 06:40:01 10° S 06:44:13 26° WSW 06:48:23 10° WNW visible
07 Mar 5.6 14:42:22 10° ENE 14:46:09 21° ESE 14:49:56 10° S visible
07 Mar 3.0 16:19:32 10° N 16:24:39 72° WNW 16:29:50 10° SSW visible
08 Mar 6.3 14:08:02 10° ESE 14:09:52 12° SE 14:11:42 10° SSE visible
08 Mar 3.7 15:42:50 10° NNE 15:47:52 59° ESE 15:52:57 10° S visible
09 Mar 6.0 07:06:00 10° SSW 07:09:18 17° SW 07:12:34 10° W visible
09 Mar 4.9 15:06:46 10° ENE 15:11:16 31° ESE 15:15:48 10° S visible
10 Mar 5.9 14:31:30 10° E 14:34:52 18° SE 14:38:13 10° SSE visible
10 Mar 3.0 16:08:04 10° NNE 16:13:13 88° WNW 16:18:25 10° SSW visible
11 Mar 6.4 07:32:37 10° SSW 07:34:16 11° SW 07:35:56 10° WSW visible
11 Mar 4.1 15:31:34 10° NE 15:36:28 48° ESE 15:41:27 10° S visible
12 Mar 5.9 06:54:17 10° S 06:58:00 20° WSW 07:01:43 10° WNW visible
12 Mar 5.2 14:55:43 10° ENE 14:59:57 26° ESE 15:04:12 10° S visible
12 Mar 3.1 16:33:38 10° N 16:38:39 55° W 16:43:45 10° SSW visible
13 Mar 6.0 14:20:45 10° E 14:23:35 15° SE 14:26:26 10° SSE visible
13 Mar 3.2 15:56:40 10° NNE 16:01:47 77° ESE 16:06:58 10° SSW visible
